Voltar ao catálogo

OPS 4682 DEB

AtivoPO
NORAD 38397·DEBRIS·🇺🇸 United States

Lançado Apr 3, 1965 de Vandenberg Space Force Base

Loading…

Próximas Passagens (próximas 24 horas)

TLE

AtualizadoSource: Space-Track

Época: Sep 14, 2026, 07:28 UTC

1 38397U 65027DA  26257.31112562  .00000082  00000-0  24632-3 0  9993
2 38397  90.2591  19.6638 0039775  21.9921 338.2897 13.00034996674435

Acompanhe OPS 4682 DEB em tempo real com AllMySat

Download on the App Store